STARLINK-1452, 45669

Orbit data source: Space-Track

STARLINK-1452, 45669 is a payload satellite owned by SpaceX/Seattle (US) in LEO that was launched on Thu, 04 Jun 2020 UTC via an FALCON 9 launch vehicle from the Air Force Eastern Test Range (AFETR). Payload-class satellites include a variety of spacecraft equipped with specific instruments for various scientific and technological missions. These include communications satellites like Starlink; space stations such as the ISS; scientific satellites like the Hubble; Earth observation satellites from companies like Planet Labs, Umbra, and HawkEye 360; GPS; miniature CubeSats for education and research; and military/defense satellites.

Loading next visibility...
Identifier
45669, 2020-035N
Orbit
LEO
Country
Flag of USUS
Related business
Manufacturer
SpaceX/Seattle
Mission
Partially operational Commercial Communications
Bus & Motor
STARLINK, Unknown motor
Mass
260 kg wet, ~248 kg dry
Launch date (UTC)
2020-06-04 (5 years ago)
Launch vehicle
FALCON 9
Launch site
Air Force Eastern Test Range (AFETR)
Object type
Payload
Rocket body
Debris
Shape & HBR
Box + 1 Pan, 10.1 m
Radar Cross Section
13.562 m², Large (>1 m²)

Expand to show TLE details & history
Last TLE update: 14 hours ago

TLE from 14 hours ago
0 STARLINK-1452
1 45669U 20035N   25287.85346967  .00012454  00000-0  51200-3 0  9999
2 45669  53.0386 344.8376 0008574 313.2120  46.8160 15.24526913296985
Epoch: 2025-10-14T20:28Z
TLE epoch observation values (Epoch: 2025-10-14T20:28:59.779Z)
Latitude
-0.00002°
Longitude
13.95257°
Altitude
489.062 km
Speed
7.624 km/s
True Right ascension
22h 59m 21s
True Declination
0° 00' 00"
Sunlit
Object was in full shadow at epoch
Visualization orbit readout
Latitude
Unknown
Longitude
Unknown
Altitude
Unknown
Speed
Unknown
Apparent Right ascension
Unknown
Apparent Declination
Unknown
Sunlit
N/A
Visualization observer readout
Local Sidereal Time
04:37:55
Azimuth
Unknown
Elevation
Unknown
Doppler factor
Unknown
Orbital elements
Apogee altitude
498.373 km
Perigee altitude
486.591 km
Semi-major axis
6,870.619 km
Eccentricity
0.00086
Inclination
53.0386°
RAAN
344.8376°
Arg. of periapsis
313.212°
True anomaly
46.88769°
Mean anomaly
46.816°
Eccentric anomaly
46.85184°
Mean motion
3.81109 °/min
Orbital period
94.46 mins
BSTAR
0.000512
Loading maneuver chart data...
Computing Atmospheric mass density...
Loading historical data...
Loading historical data...
Loading historical data...
Loading historical data...
Loading historical data...
Loading historical data...
Loading historical data...

Documentation

Showing up to 5 results
|